Tracking 31027 objects as of 19-Jul-2025
HD Live streaming from Space Station
objects crossing your sky now

OBJECT D

Track OBJECT D now!
10-day predictions


NORAD ID: 61230
Int'l Code: 2024-173D
Perigee: 480.1 km
Apogee: 514.5 km
Inclination: 97.4 °
Period: 94.4 minutes
Semi major axis: 6868 km
RCS: Unknown
Launch date: September 24, 2024
Source: People's Republic of China (PRC)
Launch site: Yellow Sea Launch Area, China (YSLA)
Your satellite tracking list
KL-BETA B
Track 1 satellite(s)




NASA's NSSDC Master Catalog

Two Line Element Set (TLE):
1 61230U 24173D   25199.86172399  .00010558  00000-0  41953-3 0  9994
2 61230  97.3869 279.3394 0025039 332.8965  27.0963 15.25201656 45669
Source of the keplerian elements: AFSPC